Weather History for KAKO - July, 2013

Change the Weather History Date:

Thursday, July 11, 2013

  Actual Average Record
Temperature  
Mean Temperature 77 °F 74 °F  
Max Temperature 93 °F 89 °F 105 °F (1939)
Min Temperature 61 °F 60 °F 49 °F (1951)
Degree Days  
Heating Degree Days 0    
Month to date heating degree days 0  
Cooling Degree Days 12    
Month to date cooling degree days 116  
Growing Degree Days 28 (Base 50)    
Moisture  
Dew Point 56 °F    
Average Humidity 51    
Maximum Humidity 73    
Minimum Humidity 28    
Precipitation  
Precipitation 0.00 in 0.08 in 1.87 in (1967)
Month to date precipitation 1.04 0.82  
Year to date precipitation 6.13 9.46  
Sea Level Pressure  
Sea Level Pressure 29.86 in    
Wind  
Wind Speed 16 mph (South)    
Max Wind Speed 28 mph    
Max Gust Speed 37 mph    
Visibility 10 miles    
Events      
T = Trace of Precipitation, MM = Missing Value Source: NWS Daily Summary

Daily Weather History Graph

Daily Weather History Graph

Search for Another Location

Airport or City:

Trip Planner

Search our weather history database for the weather conditions in past years. The results will help you decide how hot, cold, wet, or windy it might be!

Date:

Astronomy

Jul. 11, 2013 Rise Set
Actual Time 5:33 AM MDT 8:23 PM MDT
Civil Twilight 5:01 AM MDT 8:55 PM MDT
Nautical Twilight 4:20 AM MDT 9:35 PM MDT
Astronomical Twilight 3:33 AM MDT 10:22 PM MDT
Moon 8:54 AM MDT (7/11) 10:04 PM MDT (7/11)
Length of Visible Light 15h 54m
Length of Day
14h 49m
Waxing Crescent, 11% of the Moon is Illuminated
Jul 11
Waxing Crescent
Jul 15
First Quarter
Jul 22
Full
Jul 29
Last Quarter
Aug 6
New

Hourly Weather History & Observations

Time (MDT) Temp. Heat Index Dew Point Humidity Pressure Visibility Wind Dir Wind Speed Gust Speed Precip Events Conditions
12:53 AM 66.9 °F - 55.0 °F 66% 29.99 in 10.0 mi South 10.4 mph - N/A   Clear
1:53 AM 66.9 °F - 55.0 °F 66% 29.97 in 10.0 mi SSW 11.5 mph 23.0 mph N/A   Clear
2:53 AM 66.0 °F - 55.0 °F 68% 29.96 in 10.0 mi SSW 15.0 mph 27.6 mph N/A   Clear
3:53 AM 66.0 °F - 54.0 °F 65% 29.94 in 10.0 mi SSW 19.6 mph 26.5 mph N/A   Clear
4:53 AM 64.9 °F - 54.0 °F 68% 29.98 in 10.0 mi South 10.4 mph - N/A   Clear
5:53 AM 64.0 °F - 55.0 °F 73% 29.97 in 10.0 mi South 8.1 mph - N/A   Clear
6:53 AM 66.9 °F - 55.9 °F 68% 29.95 in 10.0 mi SSW 11.5 mph 25.3 mph N/A   Clear
7:53 AM 73.0 °F - 57.9 °F 59% 29.92 in 10.0 mi SSW 15.0 mph 29.9 mph N/A   Clear
8:53 AM 79.0 °F - 57.0 °F 47% 29.91 in 10.0 mi South 17.3 mph 27.6 mph N/A   Clear
9:53 AM 82.9 °F 82.4 °F 57.0 °F 41% 29.89 in 10.0 mi SSW 12.7 mph 26.5 mph N/A   Clear
10:53 AM 88.0 °F 86.1 °F 55.0 °F 32% 29.87 in 10.0 mi South 23.0 mph - N/A   Clear
11:53 AM 89.1 °F 87.1 °F 55.0 °F 31% 29.85 in 10.0 mi South 21.9 mph 27.6 mph N/A   Clear
12:53 PM 91.0 °F 88.7 °F 54.0 °F 28% 29.83 in 10.0 mi South 18.4 mph 26.5 mph N/A   Clear
1:53 PM 91.0 °F 89.2 °F 55.9 °F 30% 29.82 in 10.0 mi South 23.0 mph 36.8 mph N/A   Clear
2:53 PM 91.9 °F 89.5 °F 53.1 °F 27% 29.81 in 10.0 mi South 23.0 mph 29.9 mph N/A   Clear
3:53 PM 91.9 °F 89.5 °F 53.1 °F 27% 29.79 in 10.0 mi South 24.2 mph 33.4 mph N/A   Clear
4:53 PM 91.0 °F 88.9 °F 55.0 °F 29% 29.78 in 10.0 mi SSE 23.0 mph 28.8 mph N/A   Clear
5:53 PM 90.0 °F 88.1 °F 55.9 °F 31% 29.75 in 10.0 mi South 21.9 mph 31.1 mph N/A   Clear
6:53 PM 87.1 °F 85.9 °F 57.0 °F 36% 29.76 in 10.0 mi SSE 27.6 mph 33.4 mph N/A   Clear
7:53 PM 84.0 °F 83.0 °F 55.9 °F 38% 29.76 in 10.0 mi South 23.0 mph - N/A   Clear
8:53 PM 81.0 °F 81.0 °F 57.0 °F 44% 29.76 in 10.0 mi SSE 19.6 mph 26.5 mph N/A   Clear
9:53 PM 78.1 °F - 57.9 °F 50% 29.78 in 10.0 mi SSE 18.4 mph 26.5 mph N/A   Clear
10:53 PM 75.9 °F - 57.0 °F 52% 29.78 in 10.0 mi SSE 16.1 mph 25.3 mph N/A   Clear
11:53 PM 75.0 °F - 59.0 °F 57% 29.78 in 10.0 mi South 18.4 mph 25.3 mph N/A   Clear